Location: Unspecified
(0.0000°N, 0.0000°E)
Time: 01:30:16
(UTC+00:00)

Vanguard 3 - Pass Details

Date: 21 November 2019
Orbit: 508 x 3263 km, 33.3° (Epoch: 11 December)

Event Time Altitude Azimuth Distance (km) Brightness Sun altitude
Rises 16:34:47 0° 313° (NW) 7,196 12.3 16.7°
Reaches altitude 10° 16:43:33 10° 333° (NNW) 5,921 11.7 14.6°
Maximum altitude 16:52:31 15° 3° (N) 4,949 11.0 12.5°
Drops below altitude 10° 16:59:56 10° 35° (NE) 4,789 10.6 10.8°
Sets 17:05:31 0° 56° (ENE) 5,223 10.6 9.5°
